Time,TemperatureF,DewpointF,PressureIn,WindDirection,WindDirectionDegrees,WindSpeedMPH,WindSpeedGustMPH,Humidity,HourlyPrecipIn,Conditions,Clouds,dailyrainin,SoftwareType,DateUTC
2013-11-27 00:00:00,14.4,5.7,30.44,ENE,57,0.0,2.0,68,0.00,,,0.00,meteohub,2013-11-27 06:00:00,
2013-11-27 00:05:00,14.4,5.7,30.44,ENE,57,0.0,1.0,68,0.00,,,0.00,meteohub,2013-11-27 06:05:00,
2013-11-27 00:10:00,14.2,5.5,30.43,NE,56,0.0,0.0,68,0.00,,,0.00,meteohub,2013-11-27 06:10:00,
2013-11-27 00:15:00,14.2,5.5,30.43,ENE,57,0.0,0.0,68,0.00,,,0.00,meteohub,2013-11-27 06:15:00,
2013-11-27 00:20:00,14.0,5.4,30.43,ENE,57,0.0,0.0,68,0.00,,,0.00,meteohub,2013-11-27 06:20:00,
2013-11-27 00:25:00,14.0,5.4,30.43,NE,56,0.0,0.0,68,0.00,,,0.00,meteohub,2013-11-27 06:25:00,
2013-11-27 00:30:00,13.8,5.5,30.43,ENE,57,0.0,0.0,69,0.00,,,0.00,meteohub,2013-11-27 06:30:00,
2013-11-27 00:35:00,13.8,5.5,30.43,ENE,57,0.0,0.0,69,0.00,,,0.00,meteohub,2013-11-27 06:35:00,
2013-11-27 00:41:00,13.6,5.4,30.43,NE,56,0.0,0.0,69,0.00,,,0.00,meteohub,2013-11-27 06:41:00,
2013-11-27 00:46:00,13.6,5.4,30.43,ENE,57,0.0,0.0,69,0.00,,,0.00,meteohub,2013-11-27 06:46:00,
2013-11-27 00:51:00,13.6,5.4,30.43,NE,54,0.0,3.0,69,0.00,,,0.00,meteohub,2013-11-27 06:51:00,
2013-11-27 00:56:00,13.6,5.7,30.43,NE,53,0.0,3.0,70,0.00,,,0.00,meteohub,2013-11-27 06:56:00,
2013-11-27 01:01:00,13.5,5.5,30.43,NE,54,0.0,3.0,70,0.00,,,0.00,meteohub,2013-11-27 07:01:00,
2013-11-27 01:06:00,13.5,5.5,30.43,NE,54,0.0,2.0,70,0.00,,,0.00,meteohub,2013-11-27 07:06:00,
2013-11-27 01:11:00,13.5,5.5,30.43,NE,54,0.0,2.0,70,0.00,,,0.00,meteohub,2013-11-27 07:11:00,
2013-11-27 01:16:00,13.5,5.5,30.44,NE,54,0.0,2.0,70,0.00,,,0.00,meteohub,2013-11-27 07:16:00,
2013-11-27 01:21:00,13.5,5.5,30.44,NE,54,0.0,2.0,70,0.00,,,0.00,meteohub,2013-11-27 07:21:00,
2013-11-27 01:26:00,13.5,5.5,30.44,NE,53,0.0,0.0,70,0.00,,,0.00,meteohub,2013-11-27 07:26:00,
2013-11-27 01:31:00,13.3,5.4,30.44,NE,54,0.0,0.0,70,0.00,,,0.00,meteohub,2013-11-27 07:31:00,
2013-11-27 01:36:00,13.3,5.4,30.44,NE,54,0.0,0.0,70,0.00,,,0.00,meteohub,2013-11-27 07:36:00,
2013-11-27 01:41:00,13.3,5.4,30.44,NE,54,0.0,0.0,70,0.00,,,0.00,meteohub,2013-11-27 07:41:00,
2013-11-27 01:46:00,13.1,5.2,30.44,NE,54,0.0,0.0,70,0.00,,,0.00,meteohub,2013-11-27 07:46:00,
2013-11-27 01:52:00,13.1,5.2,30.44,NE,54,0.0,0.0,70,0.00,,,0.00,meteohub,2013-11-27 07:52:00,
2013-11-27 01:57:00,12.9,5.0,30.44,NE,54,0.0,0.0,70,0.00,,,0.00,meteohub,2013-11-27 07:57:00,
2013-11-27 02:02:00,12.9,5.0,30.45,NE,53,0.0,0.0,70,0.00,,,0.00,meteohub,2013-11-27 08:02:00,
2013-11-27 02:07:00,12.7,4.8,30.45,NE,54,0.0,0.0,70,0.00,,,0.00,meteohub,2013-11-27 08:07:00,
2013-11-27 02:12:00,12.6,4.6,30.45,NE,54,0.0,0.0,70,0.00,,,0.00,meteohub,2013-11-27 08:12:00,
2013-11-27 02:17:00,12.6,4.6,30.44,NE,54,0.0,0.0,70,0.00,,,0.00,meteohub,2013-11-27 08:17:00,
2013-11-27 02:22:00,12.4,4.8,30.45,NE,53,0.0,0.0,71,0.00,,,0.00,meteohub,2013-11-27 08:22:00,
2013-11-27 02:27:00,12.0,4.5,30.45,NE,53,0.0,0.0,71,0.00,,,0.00,meteohub,2013-11-27 08:27:00,
2013-11-27 02:32:00,12.0,4.5,30.45,NE,54,0.0,0.0,71,0.00,,,0.00,meteohub,2013-11-27 08:32:00,
2013-11-27 02:37:00,11.8,4.3,30.45,NE,53,0.0,0.0,71,0.00,,,0.00,meteohub,2013-11-27 08:37:00,
2013-11-27 02:42:00,11.8,4.3,30.45,NE,53,0.0,0.0,71,0.00,,,0.00,meteohub,2013-11-27 08:42:00,
2013-11-27 02:47:00,11.7,4.1,30.45,NE,54,0.0,0.0,71,0.00,,,0.00,meteohub,2013-11-27 08:47:00,
2013-11-27 02:52:00,11.7,4.5,30.45,NE,54,0.0,0.0,72,0.00,,,0.00,meteohub,2013-11-27 08:52:00,
2013-11-27 02:57:00,11.7,4.5,30.45,NE,54,0.0,0.0,72,0.00,,,0.00,meteohub,2013-11-27 08:57:00,
2013-11-27 03:02:00,11.5,4.3,30.45,NE,53,0.0,0.0,72,0.00,,,0.00,meteohub,2013-11-27 09:02:00,
2013-11-27 03:07:00,11.5,4.5,30.44,NE,54,0.0,0.0,73,0.00,,,0.00,meteohub,2013-11-27 09:07:00,
2013-11-27 03:12:00,11.5,4.3,30.44,NE,54,0.0,0.0,72,0.00,,,0.00,meteohub,2013-11-27 09:12:00,
2013-11-27 03:17:00,11.3,4.3,30.44,NE,53,0.0,0.0,73,0.00,,,0.00,meteohub,2013-11-27 09:17:00,
2013-11-27 03:22:00,11.3,4.3,30.44,NE,54,0.0,0.0,73,0.00,,,0.00,meteohub,2013-11-27 09:22:00,
2013-11-27 03:27:00,11.1,4.1,30.44,NE,54,0.0,0.0,73,0.00,,,0.00,meteohub,2013-11-27 09:27:00,
2013-11-27 03:32:00,11.1,4.1,30.44,NE,54,0.0,0.0,73,0.00,,,0.00,meteohub,2013-11-27 09:32:00,
2013-11-27 03:37:00,11.1,4.5,30.43,NE,53,0.0,0.0,74,0.00,,,0.00,meteohub,2013-11-27 09:37:00,
2013-11-27 03:42:00,11.1,4.5,30.43,NE,54,0.0,0.0,74,0.00,,,0.00,meteohub,2013-11-27 09:42:00,
2013-11-27 03:47:00,10.9,4.3,30.43,NE,54,0.0,0.0,74,0.00,,,0.00,meteohub,2013-11-27 09:47:00,
2013-11-27 03:52:00,11.1,4.5,30.43,NE,54,0.0,0.0,74,0.00,,,0.00,meteohub,2013-11-27 09:52:00,
2013-11-27 03:57:00,11.1,4.5,30.43,NE,53,0.0,0.0,74,0.00,,,0.00,meteohub,2013-11-27 09:57:00,
2013-11-27 04:02:00,10.9,4.3,30.43,NE,54,0.0,0.0,74,0.00,,,0.00,meteohub,2013-11-27 10:02:00,
2013-11-27 04:07:00,10.9,4.3,30.43,NE,54,0.0,0.0,74,0.00,,,0.00,meteohub,2013-11-27 10:07:00,
2013-11-27 04:12:00,10.9,4.3,30.44,NE,53,0.0,0.0,74,0.00,,,0.00,meteohub,2013-11-27 10:12:00,
2013-11-27 04:17:00,10.9,4.3,30.44,NE,53,0.0,0.0,74,0.00,,,0.00,meteohub,2013-11-27 10:17:00,
2013-11-27 04:22:00,10.9,4.3,30.43,NE,54,0.0,0.0,74,0.00,,,0.00,meteohub,2013-11-27 10:22:00,
2013-11-27 04:27:00,10.8,4.1,30.43,NE,54,0.0,0.0,74,0.00,,,0.00,meteohub,2013-11-27 10:27:00,
2013-11-27 04:32:00,10.8,4.5,30.43,NE,53,0.0,0.0,75,0.00,,,0.00,meteohub,2013-11-27 10:32:00,
2013-11-27 04:37:00,10.8,4.5,30.44,NE,54,0.0,0.0,75,0.00,,,0.00,meteohub,2013-11-27 10:37:00,
2013-11-27 04:42:00,10.6,4.3,30.44,NE,54,0.0,0.0,75,0.00,,,0.00,meteohub,2013-11-27 10:42:00,
2013-11-27 04:47:00,10.6,4.3,30.44,NE,53,0.0,0.0,75,0.00,,,0.00,meteohub,2013-11-27 10:47:00,
2013-11-27 04:52:00,10.4,4.1,30.44,NE,53,0.0,0.0,75,0.00,,,0.00,meteohub,2013-11-27 10:52:00,
2013-11-27 04:57:00,10.2,3.9,30.43,NE,54,0.0,0.0,75,0.00,,,0.00,meteohub,2013-11-27 10:57:00,
2013-11-27 05:02:00,10.2,3.9,30.44,NE,54,0.0,0.0,75,0.00,,,0.00,meteohub,2013-11-27 11:02:00,
2013-11-27 05:07:00,10.2,3.9,30.44,NE,54,0.0,0.0,75,0.00,,,0.00,meteohub,2013-11-27 11:07:00,
2013-11-27 05:12:00,10.2,3.9,30.44,NE,54,0.0,0.0,75,0.00,,,0.00,meteohub,2013-11-27 11:12:00,
2013-11-27 05:17:00,10.0,3.7,30.43,NE,54,0.0,0.0,75,0.00,,,0.00,meteohub,2013-11-27 11:17:00,
2013-11-27 05:22:00,10.0,3.7,30.43,NE,54,0.0,0.0,75,0.00,,,0.00,meteohub,2013-11-27 11:22:00,
2013-11-27 05:27:00,9.9,3.6,30.43,NE,53,0.0,0.0,75,0.00,,,0.00,meteohub,2013-11-27 11:27:00,
2013-11-27 05:32:00,9.9,3.6,30.43,NE,54,0.0,0.0,75,0.00,,,0.00,meteohub,2013-11-27 11:32:00,
2013-11-27 05:37:00,9.9,3.6,30.43,NE,54,0.0,0.0,75,0.00,,,0.00,meteohub,2013-11-27 11:37:00,
2013-11-27 05:42:00,9.7,3.4,30.44,NE,54,0.0,0.0,75,0.00,,,0.00,meteohub,2013-11-27 11:42:00,
2013-11-27 05:47:00,9.3,3.0,30.44,NE,53,0.0,0.0,75,0.00,,,0.00,meteohub,2013-11-27 11:47:00,
2013-11-27 05:52:00,9.1,3.2,30.44,NE,53,0.0,0.0,76,0.00,,,0.00,meteohub,2013-11-27 11:52:00,
2013-11-27 05:57:00,9.1,3.2,30.44,NE,54,0.0,0.0,76,0.00,,,0.00,meteohub,2013-11-27 11:57:00,
2013-11-27 06:02:00,9.0,3.0,30.44,NE,53,0.0,0.0,76,0.00,,,0.00,meteohub,2013-11-27 12:02:00,
2013-11-27 06:07:00,8.8,2.8,30.44,NE,53,0.0,0.0,76,0.00,,,0.00,meteohub,2013-11-27 12:07:00,
2013-11-27 06:12:00,8.8,2.8,30.44,NE,54,0.0,0.0,76,0.00,,,0.00,meteohub,2013-11-27 12:12:00,
2013-11-27 06:17:00,8.6,2.7,30.44,NE,54,0.0,0.0,76,0.00,,,0.00,meteohub,2013-11-27 12:17:00,
2013-11-27 06:22:00,8.4,2.5,30.44,NE,54,0.0,0.0,76,0.00,,,0.00,meteohub,2013-11-27 12:22:00,
2013-11-27 06:27:00,8.2,2.3,30.44,NE,53,0.0,0.0,76,0.00,,,0.00,meteohub,2013-11-27 12:27:00,
2013-11-27 06:32:00,8.2,2.5,30.44,NE,54,0.0,0.0,77,0.00,,,0.00,meteohub,2013-11-27 12:32:00,
2013-11-27 06:37:00,8.2,2.5,30.44,NE,53,0.0,0.0,77,0.00,,,0.00,meteohub,2013-11-27 12:37:00,
2013-11-27 06:42:00,8.2,2.5,30.43,NE,53,0.0,0.0,77,0.00,,,0.00,meteohub,2013-11-27 12:42:00,
2013-11-27 06:47:00,8.2,2.5,30.43,NE,53,0.0,0.0,77,0.00,,,0.00,meteohub,2013-11-27 12:47:00,
2013-11-27 06:52:00,8.1,2.3,30.43,NE,54,0.0,0.0,77,0.00,,,0.00,meteohub,2013-11-27 12:52:00,
2013-11-27 06:57:00,8.1,2.3,30.43,NE,54,0.0,0.0,77,0.00,,,0.00,meteohub,2013-11-27 12:57:00,
2013-11-27 07:02:00,8.1,2.3,30.43,NE,53,0.0,0.0,77,0.00,,,0.00,meteohub,2013-11-27 13:02:00,
2013-11-27 07:07:00,8.1,2.3,30.43,NE,54,0.0,0.0,77,0.00,,,0.00,meteohub,2013-11-27 13:07:00,
2013-11-27 07:12:00,8.1,2.3,30.43,NE,54,0.0,0.0,77,0.00,,,0.00,meteohub,2013-11-27 13:12:00,
2013-11-27 07:17:00,7.9,2.1,30.42,NE,54,0.0,0.0,77,0.00,,,0.00,meteohub,2013-11-27 13:17:00,
2013-11-27 07:22:00,7.9,2.1,30.43,NE,53,0.0,0.0,77,0.00,,,0.00,meteohub,2013-11-27 13:22:00,
2013-11-27 07:27:00,7.9,2.5,30.43,NE,53,0.0,0.0,78,0.00,,,0.00,meteohub,2013-11-27 13:27:00,
2013-11-27 07:32:00,7.7,2.3,30.43,NE,54,0.0,0.0,78,0.00,,,0.00,meteohub,2013-11-27 13:32:00,
2013-11-27 07:37:00,7.5,2.1,30.43,NE,53,0.0,0.0,78,0.00,,,0.00,meteohub,2013-11-27 13:37:00,
2013-11-27 07:42:00,7.5,2.1,30.42,NE,53,0.0,0.0,78,0.00,,,0.00,meteohub,2013-11-27 13:42:00,
2013-11-27 07:47:00,7.5,2.1,30.43,NE,54,0.0,0.0,78,0.00,,,0.00,meteohub,2013-11-27 13:47:00,
2013-11-27 07:52:00,7.5,2.1,30.42,NE,54,0.0,0.0,78,0.00,,,0.00,meteohub,2013-11-27 13:52:00,
2013-11-27 07:57:00,7.7,2.3,30.43,NE,54,0.0,0.0,78,0.00,,,0.00,meteohub,2013-11-27 13:57:00,
2013-11-27 08:02:00,7.7,2.5,30.43,NE,54,0.0,0.0,79,0.00,,,0.00,meteohub,2013-11-27 14:02:00,
2013-11-27 08:07:00,7.9,2.7,30.43,NE,54,0.0,0.0,79,0.00,,,0.00,meteohub,2013-11-27 14:07:00,
2013-11-27 08:12:00,7.9,2.7,30.42,NE,54,0.0,0.0,79,0.00,,,0.00,meteohub,2013-11-27 14:12:00,
2013-11-27 08:17:00,8.1,2.8,30.42,NE,53,0.0,0.0,79,0.00,,,0.00,meteohub,2013-11-27 14:17:00,
2013-11-27 08:22:00,8.2,3.0,30.42,NE,54,0.0,0.0,79,0.00,,,0.00,meteohub,2013-11-27 14:22:00,
2013-11-27 08:27:00,8.4,3.6,30.43,NE,54,0.0,0.0,80,0.00,,,0.00,meteohub,2013-11-27 14:27:00,
2013-11-27 08:32:00,9.0,4.1,30.43,NE,54,0.0,0.0,80,0.00,,,0.00,meteohub,2013-11-27 14:32:00,
2013-11-27 08:37:00,9.1,4.3,30.43,NE,53,0.0,0.0,80,0.00,,,0.00,meteohub,2013-11-27 14:37:00,
2013-11-27 08:42:00,9.7,5.0,30.43,NE,54,0.0,0.0,81,0.00,,,0.00,meteohub,2013-11-27 14:42:00,
2013-11-27 08:47:00,10.0,5.4,30.43,NE,54,0.0,0.0,81,0.00,,,0.00,meteohub,2013-11-27 14:47:00,
2013-11-27 08:52:00,10.6,5.9,30.42,NE,53,0.0,0.0,81,0.00,,,0.00,meteohub,2013-11-27 14:52:00,
2013-11-27 08:57:00,11.1,6.4,30.42,NE,53,0.0,0.0,81,0.00,,,0.00,meteohub,2013-11-27 14:57:00,
2013-11-27 09:02:00,11.7,7.0,30.42,NE,54,0.0,0.0,81,0.00,,,0.00,meteohub,2013-11-27 15:02:00,
2013-11-27 09:07:00,12.4,7.7,30.42,NE,54,0.0,0.0,81,0.00,,,0.00,meteohub,2013-11-27 15:07:00,
2013-11-27 09:12:00,12.7,8.1,30.42,NE,55,0.0,0.0,81,0.00,,,0.00,meteohub,2013-11-27 15:12:00,
2013-11-27 09:17:00,13.3,8.6,30.42,NE,55,0.0,0.0,81,0.00,,,0.00,meteohub,2013-11-27 15:17:00,
2013-11-27 09:22:00,13.8,9.1,30.41,NE,53,0.0,0.0,81,0.00,,,0.00,meteohub,2013-11-27 15:22:00,
2013-11-27 09:27:00,14.4,9.7,30.42,NE,53,0.0,2.0,81,0.00,,,0.00,meteohub,2013-11-27 15:27:00,
2013-11-27 09:32:00,14.7,10.0,30.41,NE,52,0.0,2.0,81,0.00,,,0.00,meteohub,2013-11-27 15:32:00,
2013-11-27 09:37:00,15.3,10.2,30.41,SE,133,0.0,2.0,80,0.00,,,0.00,meteohub,2013-11-27 15:37:00,
2013-11-27 09:42:00,15.6,10.6,30.41,SE,136,0.0,2.0,80,0.00,,,0.00,meteohub,2013-11-27 15:42:00,
2013-11-27 09:47:00,16.0,10.9,30.41,SE,138,0.0,2.0,80,0.00,,,0.00,meteohub,2013-11-27 15:47:00,
2013-11-27 09:52:00,16.3,11.3,30.41,SE,145,0.0,3.0,80,0.00,,,0.00,meteohub,2013-11-27 15:52:00,
2013-11-27 09:57:00,16.5,11.1,30.40,SE,145,0.0,3.0,79,0.00,,,0.00,meteohub,2013-11-27 15:57:00,
2013-11-27 10:02:00,17.1,11.7,30.40,SW,235,0.0,3.0,79,0.00,,,0.00,meteohub,2013-11-27 16:02:00,
2013-11-27 10:07:00,17.4,11.7,30.40,WSW,237,0.0,3.0,78,0.00,,,0.00,meteohub,2013-11-27 16:07:00,
2013-11-27 10:12:00,17.4,11.7,30.40,SW,236,0.0,3.0,78,0.00,,,0.00,meteohub,2013-11-27 16:12:00,
2013-11-27 10:17:00,17.8,11.8,30.40,WSW,237,0.0,2.0,77,0.00,,,0.00,meteohub,2013-11-27 16:17:00,
2013-11-27 10:22:00,18.1,12.2,30.40,West,267,0.0,3.0,77,0.00,,,0.00,meteohub,2013-11-27 16:22:00,
2013-11-27 10:27:00,18.5,12.2,30.39,West,267,0.0,3.0,76,0.00,,,0.00,meteohub,2013-11-27 16:27:00,
2013-11-27 10:32:00,18.7,12.0,30.39,West,280,0.0,3.0,75,0.00,,,0.00,meteohub,2013-11-27 16:32:00,
2013-11-27 10:37:00,18.9,12.2,30.39,West,277,0.0,3.0,75,0.00,,,0.00,meteohub,2013-11-27 16:37:00,
2013-11-27 10:42:00,19.0,12.2,30.38,West,277,0.0,3.0,74,0.00,,,0.00,meteohub,2013-11-27 16:42:00,
2013-11-27 10:47:00,19.0,11.8,30.38,West,277,0.0,3.0,73,0.00,,,0.00,meteohub,2013-11-27 16:47:00,
2013-11-27 10:52:00,19.2,11.7,30.38,West,278,0.0,3.0,72,0.00,,,0.00,meteohub,2013-11-27 16:52:00,
2013-11-27 10:57:00,19.4,13.6,30.38,West,279,0.0,4.0,78,0.00,,,0.00,meteohub,2013-11-27 16:57:00,
2013-11-27 11:02:00,19.6,11.7,30.37,SW,215,1.0,4.0,71,0.00,,,0.00,meteohub,2013-11-27 17:02:00,
2013-11-27 11:07:00,19.8,11.5,30.36,SW,215,0.0,3.0,70,0.00,,,0.00,meteohub,2013-11-27 17:07:00,
2013-11-27 11:12:00,19.8,11.5,30.36,SW,216,0.0,3.0,70,0.00,,,0.00,meteohub,2013-11-27 17:12:00,
2013-11-27 11:17:00,19.9,11.7,30.36,SW,216,2.0,3.0,70,0.00,,,0.00,meteohub,2013-11-27 17:17:00,
2013-11-27 11:22:00,20.1,11.7,30.36,SW,217,0.0,3.0,69,0.00,,,0.00,meteohub,2013-11-27 17:22:00,
2013-11-27 11:27:00,20.3,11.8,30.35,SW,217,0.0,2.0,69,0.00,,,0.00,meteohub,2013-11-27 17:27:00,
2013-11-27 11:32:00,20.5,11.7,30.35,SW,217,0.0,4.0,68,0.00,,,0.00,meteohub,2013-11-27 17:32:00,
2013-11-27 11:37:00,20.7,11.8,30.35,SW,217,0.0,4.0,68,0.00,,,0.00,meteohub,2013-11-27 17:37:00,
2013-11-27 11:42:00,20.8,11.7,30.34,NW,318,0.0,4.0,67,0.00,,,0.00,meteohub,2013-11-27 17:42:00,
2013-11-27 11:47:00,21.2,11.7,30.34,WNW,299,0.0,3.0,66,0.00,,,0.00,meteohub,2013-11-27 17:47:00,
2013-11-27 11:52:00,21.7,11.8,30.33,WNW,297,0.0,3.0,65,0.00,,,0.00,meteohub,2013-11-27 17:52:00,
2013-11-27 11:57:00,21.9,11.7,30.33,West,265,1.0,3.0,64,0.00,,,0.00,meteohub,2013-11-27 17:57:00,
2013-11-27 12:02:00,22.5,11.5,30.32,WSW,241,0.0,5.0,62,0.00,,,0.00,meteohub,2013-11-27 18:02:00,
2013-11-27 12:07:00,22.8,11.8,30.32,SW,225,0.0,5.0,62,0.00,,,0.00,meteohub,2013-11-27 18:07:00,
2013-11-27 12:12:00,23.4,11.5,30.32,SW,234,1.0,6.0,60,0.00,,,0.00,meteohub,2013-11-27 18:12:00,
2013-11-27 12:17:00,23.5,11.3,30.31,SW,233,2.0,6.0,59,0.00,,,0.00,meteohub,2013-11-27 18:17:00,
2013-11-27 12:22:00,23.9,11.3,30.31,SW,229,2.0,6.0,58,0.00,,,0.00,meteohub,2013-11-27 18:22:00,
2013-11-27 12:27:00,23.9,11.3,30.31,SW,227,0.0,5.0,58,0.00,,,0.00,meteohub,2013-11-27 18:27:00,
2013-11-27 12:32:00,24.1,11.5,30.30,SW,230,1.0,5.0,58,0.00,,,0.00,meteohub,2013-11-27 18:32:00,
2013-11-27 12:37:00,24.3,11.7,30.30,WSW,244,0.0,6.0,58,0.00,,,0.00,meteohub,2013-11-27 18:37:00,
2013-11-27 12:42:00,24.4,11.5,30.30,West,264,1.0,6.0,57,0.00,,,0.00,meteohub,2013-11-27 18:42:00,
2013-11-27 12:47:00,24.6,11.5,30.30,West,265,0.0,6.0,57,0.00,,,0.00,meteohub,2013-11-27 18:47:00,
2013-11-27 12:52:00,24.4,10.9,30.29,SSE,155,4.0,4.0,56,0.00,,,0.00,meteohub,2013-11-27 18:52:00,
2013-11-27 12:56:00,24.3,10.8,30.29,WSW,240,0.0,5.0,56,0.00,,,0.00,meteohub,2013-11-27 18:56:00,
2013-11-27 13:01:00,24.1,10.6,30.28,WSW,241,0.0,5.0,56,0.00,,,0.00,meteohub,2013-11-27 19:01:00,
2013-11-27 13:06:00,23.9,10.4,30.28,SW,221,3.0,5.0,56,0.00,,,0.00,meteohub,2013-11-27 19:06:00,
2013-11-27 13:11:00,23.7,10.4,30.28,SW,229,0.0,4.0,56,0.00,,,0.00,meteohub,2013-11-27 19:11:00,
2013-11-27 13:16:00,23.7,10.4,30.27,SW,227,0.0,4.0,56,0.00,,,0.00,meteohub,2013-11-27 19:16:00,
2013-11-27 13:22:00,23.7,10.4,30.27,SW,233,0.0,4.0,56,0.00,,,0.00,meteohub,2013-11-27 19:22:00,
2013-11-27 13:27:00,23.9,10.4,30.27,WSW,247,5.0,5.0,56,0.00,,,0.00,meteohub,2013-11-27 19:27:00,
2013-11-27 13:32:00,23.7,10.4,30.27,SW,234,0.0,5.0,56,0.00,,,0.00,meteohub,2013-11-27 19:32:00,
2013-11-27 13:37:00,23.7,10.4,30.26,SW,233,0.0,5.0,56,0.00,,,0.00,meteohub,2013-11-27 19:37:00,
2013-11-27 13:42:00,23.7,10.4,30.26,West,269,0.0,5.0,56,0.00,,,0.00,meteohub,2013-11-27 19:42:00,
2013-11-27 13:47:00,23.7,10.4,30.26,WSW,253,1.0,4.0,56,0.00,,,0.00,meteohub,2013-11-27 19:47:00,
2013-11-27 13:52:00,23.7,10.4,30.26,WSW,252,0.0,4.0,56,0.00,,,0.00,meteohub,2013-11-27 19:52:00,
2013-11-27 13:57:00,23.7,10.4,30.24,WSW,249,2.0,4.0,56,0.00,,,0.00,meteohub,2013-11-27 19:57:00,
2013-11-27 14:02:00,23.9,10.4,30.24,West,263,0.0,4.0,56,0.00,,,0.00,meteohub,2013-11-27 20:02:00,
2013-11-27 14:07:00,23.9,10.4,30.24,WNW,293,2.0,6.0,56,0.00,,,0.00,meteohub,2013-11-27 20:07:00,
2013-11-27 14:12:00,23.9,10.4,30.24,WSW,241,1.0,6.0,56,0.00,,,0.00,meteohub,2013-11-27 20:12:00,
2013-11-27 14:17:00,23.7,10.4,30.24,WSW,241,0.0,6.0,56,0.00,,,0.00,meteohub,2013-11-27 20:17:00,
2013-11-27 14:22:00,23.7,10.4,30.24,West,276,0.0,4.0,56,0.00,,,0.00,meteohub,2013-11-27 20:22:00,
2013-11-27 14:27:00,23.7,10.4,30.23,West,276,0.0,4.0,56,0.00,,,0.00,meteohub,2013-11-27 20:27:00,
2013-11-27 14:32:00,23.7,10.4,30.23,NW,321,1.0,6.0,56,0.00,,,0.00,meteohub,2013-11-27 20:32:00,
2013-11-27 14:37:00,23.7,10.4,30.23,NW,313,0.0,6.0,56,0.00,,,0.00,meteohub,2013-11-27 20:37:00,
2013-11-27 14:42:00,23.7,10.4,30.23,WNW,290,0.0,6.0,56,0.00,,,0.00,meteohub,2013-11-27 20:42:00,
2013-11-27 14:47:00,23.7,10.4,30.23,WNW,291,0.0,4.0,56,0.00,,,0.00,meteohub,2013-11-27 20:47:00,
2013-11-27 14:52:00,23.9,10.4,30.23,WNW,300,0.0,5.0,56,0.00,,,0.00,meteohub,2013-11-27 20:52:00,
2013-11-27 14:57:00,23.9,10.4,30.23,NW,305,0.0,5.0,56,0.00,,,0.00,meteohub,2013-11-27 20:57:00,
2013-11-27 15:02:00,24.1,12.6,30.22,NW,305,0.0,5.0,61,0.00,,,0.00,meteohub,2013-11-27 21:02:00,
2013-11-27 15:07:00,24.3,10.8,30.22,WSW,249,4.0,4.0,56,0.00,,,0.00,meteohub,2013-11-27 21:07:00,
2013-11-27 15:12:00,24.3,10.4,30.22,West,267,0.0,7.0,55,0.00,,,0.00,meteohub,2013-11-27 21:12:00,
2013-11-27 15:17:00,24.3,10.4,30.21,West,264,0.0,7.0,55,0.00,,,0.00,meteohub,2013-11-27 21:17:00,
2013-11-27 15:22:00,24.3,10.4,30.21,West,268,0.0,7.0,55,0.00,,,0.00,meteohub,2013-11-27 21:22:00,
2013-11-27 15:27:00,24.4,10.6,30.19,WSW,244,2.0,4.0,55,0.00,,,0.00,meteohub,2013-11-27 21:27:00,
2013-11-27 15:32:00,24.4,10.6,30.18,West,261,0.0,4.0,55,0.00,,,0.00,meteohub,2013-11-27 21:32:00,
2013-11-27 15:37:00,24.4,10.6,30.18,WSW,257,0.0,5.0,55,0.00,,,0.00,meteohub,2013-11-27 21:37:00,
2013-11-27 15:42:00,24.3,10.0,30.18,SW,214,0.0,5.0,54,0.00,,,0.00,meteohub,2013-11-27 21:42:00,
2013-11-27 15:47:00,24.3,10.0,30.18,SW,225,0.0,5.0,54,0.00,,,0.00,meteohub,2013-11-27 21:47:00,
2013-11-27 15:52:00,24.3,10.4,30.19,SW,227,1.0,4.0,55,0.00,,,0.00,meteohub,2013-11-27 21:52:00,
2013-11-27 15:57:00,24.3,10.0,30.19,SW,232,2.0,7.0,54,0.00,,,0.00,meteohub,2013-11-27 21:57:00,
2013-11-27 16:02:00,24.3,10.4,30.18,SW,232,0.0,7.0,55,0.00,,,0.00,meteohub,2013-11-27 22:02:00,
2013-11-27 16:07:00,24.1,10.2,30.18,SW,232,0.0,7.0,55,0.00,,,0.00,meteohub,2013-11-27 22:07:00,
2013-11-27 16:12:00,24.1,10.2,30.17,SW,232,0.0,2.0,55,0.00,,,0.00,meteohub,2013-11-27 22:12:00,
2013-11-27 16:17:00,24.1,10.2,30.17,SW,232,0.0,0.0,55,0.00,,,0.00,meteohub,2013-11-27 22:17:00,
2013-11-27 16:22:00,23.9,10.0,30.17,SW,232,0.0,0.0,55,0.00,,,0.00,meteohub,2013-11-27 22:22:00,
2013-11-27 16:27:00,23.9,10.0,30.17,West,259,0.0,4.0,55,0.00,,,0.00,meteohub,2013-11-27 22:27:00,
2013-11-27 16:32:00,23.9,10.0,30.17,West,259,0.0,4.0,55,0.00,,,0.00,meteohub,2013-11-27 22:32:00,
2013-11-27 16:37:00,23.9,10.0,30.17,West,259,0.0,5.0,55,0.00,,,0.00,meteohub,2013-11-27 22:37:00,
2013-11-27 16:42:00,23.7,10.4,30.17,West,259,0.0,5.0,56,0.00,,,0.00,meteohub,2013-11-27 22:42:00,
2013-11-27 16:47:00,23.7,10.4,30.17,West,259,0.0,0.0,56,0.00,,,0.00,meteohub,2013-11-27 22:47:00,
2013-11-27 16:52:00,23.7,10.4,30.17,West,259,0.0,1.0,56,0.00,,,0.00,meteohub,2013-11-27 22:52:00,
2013-11-27 16:57:00,23.7,10.4,30.16,West,259,0.0,2.0,56,0.00,,,0.00,meteohub,2013-11-27 22:57:00,
2013-11-27 17:02:00,23.7,10.4,30.16,West,259,0.0,2.0,56,0.00,,,0.00,meteohub,2013-11-27 23:02:00,
2013-11-27 17:07:00,23.7,10.4,30.15,West,259,0.0,3.0,56,0.00,,,0.00,meteohub,2013-11-27 23:07:00,
2013-11-27 17:12:00,23.7,10.4,30.15,WSW,255,2.0,3.0,56,0.00,,,0.00,meteohub,2013-11-27 23:12:00,
2013-11-27 17:17:00,23.7,10.4,30.15,SSE,152,0.0,4.0,56,0.00,,,0.00,meteohub,2013-11-27 23:17:00,
2013-11-27 17:22:00,23.7,10.4,30.15,South,191,0.0,4.0,56,0.00,,,0.00,meteohub,2013-11-27 23:22:00,
2013-11-27 17:27:00,23.7,10.4,30.15,SSW,192,0.0,4.0,56,0.00,,,0.00,meteohub,2013-11-27 23:27:00,
2013-11-27 17:32:00,23.7,10.4,30.15,SSW,192,0.0,3.0,56,0.00,,,0.00,meteohub,2013-11-27 23:32:00,
2013-11-27 17:37:00,23.7,10.4,30.15,SSW,192,0.0,2.0,56,0.00,,,0.00,meteohub,2013-11-27 23:37:00,
2013-11-27 17:42:00,23.9,10.4,30.15,SSW,192,0.0,0.0,56,0.00,,,0.00,meteohub,2013-11-27 23:42:00,
2013-11-27 17:47:00,23.9,10.4,30.15,SSW,195,0.0,2.0,56,0.00,,,0.00,meteohub,2013-11-27 23:47:00,
2013-11-27 17:52:00,23.9,10.4,30.15,SSW,196,0.0,2.0,56,0.00,,,0.00,meteohub,2013-11-27 23:52:00,
2013-11-27 17:57:00,24.1,10.6,30.14,SSW,195,1.0,2.0,56,0.00,,,0.00,meteohub,2013-11-27 23:57:00,
2013-11-27 18:02:00,24.1,10.6,30.14,WSW,239,0.0,2.0,56,0.00,,,0.00,meteohub,2013-11-28 00:02:00,
2013-11-27 18:07:00,24.1,10.6,30.14,SW,217,3.0,4.0,56,0.00,,,0.00,meteohub,2013-11-28 00:07:00,
2013-11-27 18:12:00,24.3,10.8,30.14,SW,219,0.0,6.0,56,0.00,,,0.00,meteohub,2013-11-28 00:12:00,
2013-11-27 18:17:00,24.3,10.8,30.14,SW,219,0.0,6.0,56,0.00,,,0.00,meteohub,2013-11-28 00:17:00,
2013-11-27 18:22:00,24.3,10.8,30.14,WSW,255,0.0,4.0,56,0.00,,,0.00,meteohub,2013-11-28 00:22:00,
2013-11-27 18:27:00,24.3,10.8,30.15,WSW,253,0.0,7.0,56,0.00,,,0.00,meteohub,2013-11-28 00:27:00,
2013-11-27 18:32:00,24.3,10.8,30.16,WSW,253,0.0,7.0,56,0.00,,,0.00,meteohub,2013-11-28 00:32:00,
2013-11-27 18:37:00,24.3,10.8,30.16,West,280,3.0,11.0,56,0.00,,,0.00,meteohub,2013-11-28 00:37:00,
2013-11-27 18:42:00,24.3,10.8,30.17,NW,322,1.0,11.0,56,0.00,,,0.00,meteohub,2013-11-28 00:42:00,
2013-11-27 18:47:00,24.3,10.8,30.17,West,279,0.0,11.0,56,0.00,,,0.00,meteohub,2013-11-28 00:47:00,
2013-11-27 18:52:00,24.3,10.8,30.17,NNW,331,0.0,6.0,56,0.00,,,0.00,meteohub,2013-11-28 00:52:00,
2013-11-27 18:57:00,24.3,10.8,30.17,WNW,282,0.0,6.0,56,0.00,,,0.00,meteohub,2013-11-28 00:57:00,
2013-11-27 19:02:00,24.3,10.8,30.17,NW,309,0.0,4.0,56,0.00,,,0.00,meteohub,2013-11-28 01:02:00,
2013-11-27 19:07:00,24.3,10.8,30.17,NW,304,0.0,4.0,56,0.00,,,0.00,meteohub,2013-11-28 01:07:00,
2013-11-27 19:12:00,24.3,10.8,30.18,NW,315,1.0,4.0,56,0.00,,,0.00,meteohub,2013-11-28 01:12:00,
2013-11-27 19:17:00,24.3,10.8,30.18,NW,304,0.0,4.0,56,0.00,,,0.00,meteohub,2013-11-28 01:17:00,
2013-11-27 19:22:00,24.3,10.8,30.18,NW,304,0.0,6.0,56,0.00,,,0.00,meteohub,2013-11-28 01:22:00,
2013-11-27 19:27:00,24.3,10.8,30.17,NW,304,0.0,6.0,56,0.00,,,0.00,meteohub,2013-11-28 01:27:00,
2013-11-27 19:32:00,24.3,10.8,30.17,WNW,302,2.0,2.0,56,0.00,,,0.00,meteohub,2013-11-28 01:32:00,
2013-11-27 19:37:00,24.3,10.8,30.17,WSW,242,0.0,3.0,56,0.00,,,0.00,meteohub,2013-11-28 01:37:00,
2013-11-27 19:42:00,24.3,10.8,30.17,WSW,242,0.0,3.0,56,0.00,,,0.00,meteohub,2013-11-28 01:42:00,
2013-11-27 19:47:00,24.3,10.8,30.17,WSW,242,1.0,3.0,56,0.00,,,0.00,meteohub,2013-11-28 01:47:00,
2013-11-27 19:52:00,24.3,10.8,30.17,WSW,242,0.0,3.0,56,0.00,,,0.00,meteohub,2013-11-28 01:52:00,
2013-11-27 19:57:00,24.3,10.8,30.17,WSW,242,0.0,2.0,56,0.00,,,0.00,meteohub,2013-11-28 01:57:00,
2013-11-27 20:02:00,24.1,10.6,30.17,WSW,242,0.0,2.0,56,0.00,,,0.00,meteohub,2013-11-28 02:02:00,
2013-11-27 20:07:00,24.1,10.6,30.17,WSW,242,0.0,2.0,56,0.00,,,0.00,meteohub,2013-11-28 02:07:00,
2013-11-27 20:12:00,24.1,10.6,30.17,WSW,242,0.0,2.0,56,0.00,,,0.00,meteohub,2013-11-28 02:12:00,
2013-11-27 20:17:00,24.1,10.6,30.17,WSW,242,0.0,2.0,56,0.00,,,0.00,meteohub,2013-11-28 02:17:00,
2013-11-27 20:22:00,24.1,10.6,30.17,WSW,242,0.0,3.0,56,0.00,,,0.00,meteohub,2013-11-28 02:22:00,
2013-11-27 20:27:00,24.1,10.6,30.17,WSW,244,0.0,3.0,56,0.00,,,0.00,meteohub,2013-11-28 02:27:00,
2013-11-27 20:32:00,24.1,11.1,30.17,WSW,243,0.0,3.0,57,0.00,,,0.00,meteohub,2013-11-28 02:32:00,
2013-11-27 20:37:00,23.9,10.9,30.17,West,281,0.0,5.0,57,0.00,,,0.00,meteohub,2013-11-28 02:37:00,
2013-11-27 20:42:00,23.9,10.9,30.17,West,280,0.0,5.0,57,0.00,,,0.00,meteohub,2013-11-28 02:42:00,
2013-11-27 20:47:00,23.9,10.9,30.17,West,281,0.0,5.0,57,0.00,,,0.00,meteohub,2013-11-28 02:47:00,
2013-11-27 20:52:00,23.7,10.8,30.17,West,281,2.0,2.0,57,0.00,,,0.00,meteohub,2013-11-28 02:52:00,
2013-11-27 20:57:00,23.7,10.8,30.16,West,281,0.0,3.0,57,0.00,,,0.00,meteohub,2013-11-28 02:57:00,
2013-11-27 21:02:00,23.7,11.1,30.17,West,281,0.0,3.0,58,0.00,,,0.00,meteohub,2013-11-28 03:02:00,
2013-11-27 21:07:00,23.7,11.1,30.16,West,280,0.0,3.0,58,0.00,,,0.00,meteohub,2013-11-28 03:07:00,
2013-11-27 21:12:00,23.7,11.1,30.16,West,280,0.0,3.0,58,0.00,,,0.00,meteohub,2013-11-28 03:12:00,
2013-11-27 21:17:00,23.5,10.9,30.16,West,280,0.0,3.0,58,0.00,,,0.00,meteohub,2013-11-28 03:17:00,
2013-11-27 21:22:00,23.5,10.9,30.16,SSW,209,1.0,4.0,58,0.00,,,0.00,meteohub,2013-11-28 03:22:00,
2013-11-27 21:27:00,23.5,10.9,30.16,SW,220,3.0,4.0,58,0.00,,,0.00,meteohub,2013-11-28 03:27:00,
2013-11-27 21:32:00,23.5,11.3,30.16,SW,221,0.0,4.0,59,0.00,,,0.00,meteohub,2013-11-28 03:32:00,
2013-11-27 21:37:00,23.5,11.3,30.15,SW,228,0.0,4.0,59,0.00,,,0.00,meteohub,2013-11-28 03:37:00,
2013-11-27 21:42:00,23.4,11.1,30.15,SW,228,0.0,3.0,59,0.00,,,0.00,meteohub,2013-11-28 03:42:00,
2013-11-27 21:47:00,23.4,11.1,30.15,SW,227,0.0,3.0,59,0.00,,,0.00,meteohub,2013-11-28 03:47:00,
2013-11-27 21:52:00,23.4,11.1,30.15,SW,228,0.0,2.0,59,0.00,,,0.00,meteohub,2013-11-28 03:52:00,
2013-11-27 21:57:00,23.4,11.5,30.15,NW,326,0.0,3.0,60,0.00,,,0.00,meteohub,2013-11-28 03:57:00,
2013-11-27 22:02:00,23.4,11.5,30.14,WSW,258,0.0,3.0,60,0.00,,,0.00,meteohub,2013-11-28 04:02:00,
2013-11-27 22:07:00,23.4,11.5,30.14,WSW,258,0.0,3.0,60,0.00,,,0.00,meteohub,2013-11-28 04:07:00,
2013-11-27 22:12:00,23.2,11.3,30.14,WSW,257,1.0,3.0,60,0.00,,,0.00,meteohub,2013-11-28 04:12:00,
2013-11-27 22:17:00,23.2,11.3,30.14,WSW,257,0.0,2.0,60,0.00,,,0.00,meteohub,2013-11-28 04:17:00,
2013-11-27 22:22:00,23.2,11.3,30.14,WSW,257,1.0,3.0,60,0.00,,,0.00,meteohub,2013-11-28 04:22:00,
2013-11-27 22:27:00,23.0,11.1,30.14,WSW,257,0.0,3.0,60,0.00,,,0.00,meteohub,2013-11-28 04:27:00,
2013-11-27 22:32:00,23.0,11.5,30.14,WSW,257,1.0,3.0,61,0.00,,,0.00,meteohub,2013-11-28 04:32:00,
2013-11-27 22:37:00,22.8,11.3,30.13,WSW,256,2.0,3.0,61,0.00,,,0.00,meteohub,2013-11-28 04:37:00,
2013-11-27 22:42:00,22.8,11.3,30.14,WSW,256,0.0,4.0,61,0.00,,,0.00,meteohub,2013-11-28 04:42:00,
2013-11-27 22:47:00,22.8,11.3,30.14,WSW,255,0.0,4.0,61,0.00,,,0.00,meteohub,2013-11-28 04:47:00,
2013-11-27 22:52:00,22.6,11.3,30.14,WSW,255,1.0,4.0,61,0.00,,,0.00,meteohub,2013-11-28 04:52:00,
2013-11-27 22:57:00,22.6,11.3,30.13,WSW,254,0.0,3.0,61,0.00,,,0.00,meteohub,2013-11-28 04:57:00,
2013-11-27 23:01:00,22.6,11.7,30.13,WSW,254,0.0,3.0,62,0.00,,,0.00,meteohub,2013-11-28 05:01:00,
2013-11-27 23:02:00,22.6,11.7,30.13,WSW,255,0.0,3.0,62,0.00,,,0.00,meteohub,2013-11-28 05:02:00,
2013-11-27 23:03:00,22.6,11.7,30.13,WSW,255,0.0,3.0,62,0.00,,,0.00,meteohub,2013-11-28 05:03:00,
2013-11-27 23:08:00,22.6,11.7,30.13,West,275,0.0,3.0,62,0.00,,,0.00,meteohub,2013-11-28 05:08:00,
2013-11-27 23:13:00,22.5,11.5,30.13,West,275,0.0,4.0,62,0.00,,,0.00,meteohub,2013-11-28 05:13:00,
2013-11-27 23:18:00,22.5,11.5,30.13,West,273,0.0,4.0,62,0.00,,,0.00,meteohub,2013-11-28 05:18:00,
2013-11-27 23:23:00,22.5,11.8,30.13,SW,223,2.0,5.0,63,0.00,,,0.00,meteohub,2013-11-28 05:23:00,
2013-11-27 23:28:00,22.3,11.7,30.12,SW,223,0.0,5.0,63,0.00,,,0.00,meteohub,2013-11-28 05:28:00,
2013-11-27 23:34:00,22.3,11.7,30.12,West,261,0.0,5.0,63,0.00,,,0.00,meteohub,2013-11-28 05:34:00,
2013-11-27 23:39:00,22.3,11.7,30.12,West,261,0.0,5.0,63,0.00,,,0.00,meteohub,2013-11-28 05:39:00,
2013-11-27 23:44:00,22.3,12.0,30.12,WSW,256,0.0,5.0,64,0.00,,,0.00,meteohub,2013-11-28 05:44:00,
2013-11-27 23:49:00,22.1,11.8,30.12,WSW,256,0.0,5.0,64,0.00,,,0.00,meteohub,2013-11-28 05:49:00,
2013-11-27 23:54:00,22.1,11.8,30.12,WSW,256,0.0,4.0,64,0.00,,,0.00,meteohub,2013-11-28 05:54:00,
2013-11-27 23:59:00,21.9,11.7,30.12,WSW,255,0.0,4.0,64,0.00,,,0.00,meteohub,2013-11-28 05:59:00,